Retour au catalogue

COSMOS 2251 DEB

ActifLEO
NORAD 33798·DEBRIS·🇷🇺 Russia

Lancé Jun 16, 1993 depuis Plesetsk Cosmodrome

Loading…

Prochains Passages (prochaines 24 heures)

TLE

FraisSource: Space-Track

Époque: Sep 14, 2026, 13:33 UTC

1 33798U 93036AP  26257.56519765  .00000221  00000-0  68178-4 0  9996
2 33798  74.0317 342.0249 0090586  34.7660  26.2614 14.44859210925771

Suivez COSMOS 2251 DEB en temps réel avec AllMySat

Download on the App Store